weather.gov     
National Weather Service

Regional Weather Roundup
NWS Homepage
This page is being discontinued on March 12, 2014.
The same data is available at this site. Please update your bookmarks.
Thank you, and we apologize for the inconvenience.
Please send an email to SR-SRH.Webmaster@noaa.gov with any concerns.


Current Version
Previous Version:    01  02  03  04  05  06  07  08  09  10  11  12  13  14  15  16  17  18  19  20  21  22  23  24  25  26  27  28  29  30  
   31  32  33  34  35  36  37  38  39  40  41  42  43  44  45  46  47  48  49  50  51  52  53  54  
[Printable]
185
ASUS46 KSGX 231810
RWRSGX

SAN DIEGO HOURLY WEATHER ROUNDUP
NATIONAL WEATHER SERVICE SAN DIEGO CA
1100 AM PDT WED APR 23 2014

NOTE: "FAIR" INDICATES FEW OR NO CLOUDS BELOW 12,000 FEET WITH NO
SIGNIFICANT WEATHER AND/OR OBSTRUCTIONS TO VISIBILITY.

CAZ042-043-060-061-PZZ750-775-231900-

GREATER SAN DIEGO AREA

CITY           SKY/WX    TMP DP  RH WIND       PRES   REMARKS
LINDBERGH FLD  PTSUNNY   65  49  56 SW8       29.99R
NATIONAL CITY    N/A     65  54  66 S3        29.99R
CHULA VISTA      N/A     66  55  67 W6        29.91S
IMPERIAL BEACH PTSUNNY   65  51  60 CALM      29.99R
BROWN FIELD    SUNNY     67  48  50 W7        29.97S
MIRAMAR MCAS   MOSUNNY   68  46  45 MISG      29.96S
MONTGOMERY FLD SUNNY     67  49  52 VRB6      29.97S

$$

NORTH SAN DIEGO COUNTY

CITY           SKY/WX    TMP DP  RH WIND       PRES   REMARKS
CAMP PENDLETON MOSUNNY   67  47  48 SW7       29.97S
RED BEACH      FAIR      65  49  56 SW10      29.97S
OCEANSIDE AP   SUNNY     67  49  52 W10       29.96S
VISTA            N/A     65  52  64 CALM      29.95S
CARLSBAD       SUNNY     63  49  60 SW7       29.96S
DEL MAR          N/A     64  54  69 W5        29.98S
LA JOLLA SCRIP   N/A     61  54  76 NW5       29.95S
FALLBROOK        N/A     65  53  65 S1        29.96S
ESCONDIDO        N/A     67  51  56 N2        29.98S
SAN MARCOS       N/A     67  51  58 CALM      29.95S
POWAY            N/A     69  51  52 CALM      29.98S
R. PENASQUITOS   N/A     67  51  54 SE2       29.97S

$$

EAST SAN DIEGO COUNTY

CITY           SKY/WX    TMP DP  RH WIND       PRES   REMARKS
RAMONA         SUNNY     65  46  50 CALM      29.96S
GILLESPIE FLD  FAIR      70  46  43 CALM      29.98S
LA MESA          N/A     65  51  60 W9        29.91S
JAMUL            N/A     66  51  57 SW8       29.96S
DESCANSO N       N/A     61  42  49 W7        29.87R
MT. LAGUNA OBS   N/A     51  14  22 W3        29.59
CAMPO            N/A     66  34  30 W10       29.92F

$$

ORANGE COUNTY AND THE LOS ANGELES BASIN

CITY           SKY/WX    TMP DP  RH WIND       PRES   REMARKS
JOHN WAYNE AP  PTSUNNY   67  51  56 SW6       29.97S
LAGUNA BEACH     N/A     66  55  67 SE3       29.95S
LAKE FOREST FR   N/A     66  48  52 CALM      29.88S
SANTA ANA        N/A     68  55  62 CALM      29.92S
HUNTINGTON BCH   N/A     67  56  70 SW3       29.99R
LOS ALAMITOS   PTSUNNY   65  53  64 SW9       29.97S
FULLERTON      MOSUNNY   68  50  52 VRB3      29.96S
LONG BEACH     PTSUNNY   66  51  58 VRB7      29.98R
L.A. AP        PTSUNNY   68  43  40 E3        29.97R
L.A. DOWNTOWN  MOSUNNY   67  47  48 VRB5      29.96S

$$

THE INLAND EMPIRE

CITY           SKY/WX    TMP DP  RH WIND       PRES   REMARKS
CORONA         PTSUNNY   66  47  50 CALM      29.97S
CHINO          PTSUNNY   66  50  56 W3        29.97F
ONTARIO        PTSUNNY   63  47  55 SW8       29.96S
SAN BERNARDINO PTSUNNY   63  45  51 SW6       29.97R
RIVERSIDE AP   PTSUNNY   66  46  48 VRB5      29.97R
RIV CYN CREST    N/A     63  53  71 SW3       29.95R
MORENO VALLEY    N/A     63  51  66 W3        28.09R
MARCH ARB      MOSUNNY   62  43  49 NE3       29.96S
HORSETHIEF CYN   N/A     65  33  30 N3        29.97S
PERRIS           N/A     64  48  55 W2          N/A
MENIFEE          N/A     65  51  60 E1        30.03S
HEMET EAST       N/A     62  39  43 CALM      29.96R
FRENCH VALLEY  NOT AVBL
TEMECULA         N/A     64  48  54 NW1       29.94S

$$

SAN BERNARDINO AND RIVERSIDE COUNTY MOUNTAINS

CITY           SKY/WX    TMP DP  RH WIND       PRES   REMARKS
BIG BEAR AP    MOSUNNY   54  12  19 SW5       30.05R
BIG BEAR SHEA    N/A     51  10  19 NE5       29.94R
ANGELUS OAKS     N/A     54  31  41 W1        29.87R
PINE COVE        N/A     56  27  32 SW2       29.95R

$$

SOUTHERN DESERT INCLUDING THE COACHELLA VALLEY

CITY           SKY/WX    TMP DP  RH WIND       PRES   REMARKS
PALM SPRINGS   MOSUNNY   77  28  16 NW8       29.91R
THOUSAND PALMS   N/A     77  35  21 N2        29.87S
PALM DESERT      N/A     78  34  20 NW2       30.80S
THERMAL        SUNNY     79  32  18 N9        29.86S
BLYTHE         MOSUNNY   78  15   9 NW12G21   29.87R
IMPERIAL AP    SUNNY     78  40  25 N12       29.86S
EL CENTRO NAS  MOSUNNY   79  37  22 NW12G17   29.86F
YUMA AZ        PTSUNNY   80  25  13 VRB6      29.86R
MEXICALI       MOSUNNY   77  36  22 W7        29.88

$$

UPPER DESERT

CITY           SKY/WX    TMP DP  RH WIND       PRES   REMARKS
VICTORVILLE AP   N/A     59  19  21 NW8       30.03R
HESPERIA         N/A     58  22  24 CALM      30.12R
APPLE VALLEY     N/A     60  19  20 CALM      30.06S
GRAY BUTTE AP  NOT AVBL
PALMDALE       SUNNY     61  19  20 W6        30.03R
LANCASTER      MOSUNNY   62  21  20 VRB5      30.01S
EDWARDS AFB    PTSUNNY   62  17  17 NE6       30.00S
DAGGETT        SUNNY     66  16  14 W6        30.00R
29 PALMS N     PTSUNNY   66  16  14 NW13G24   30.04R
NEEDLES        SUNNY     78   8   7 NE20G33   29.89R

$$

REGIONAL REPORTS

CITY           SKY/WX    TMP DP  RH WIND       PRES   REMARKS
SANTA BARBARA  MOSUNNY   71  29  21 W7        29.97R
SANDBERG       PTSUNNY   50  26  39 NW24      30.05R
MT. WILSON       N/A     54  14  20 MISG        N/A
LAS VEGAS NV   MOSUNNY   69  12  11 NW15G21   29.93R
PHOENIX AZ     MOSUNNY   78   8   7 W17       29.81F
TIJUANA        MOSUNNY   64  45  48 NW5       29.99S
ENSENADA NW      N/A     63  32  31 W2        29.96S

$$

OFFSHORE ISLANDS

CITY           SKY/WX    TMP DP  RH WIND       PRES   REMARKS
CATALINA ARPT    N/A     63  45  51 N6        30.00R
SAN NICOLAS IS PTSUNNY   59  46  62 NW25G35   30.00R

$$

MARINE AND OFFSHORE BUOY REPORTS

STATION/POSITION SKY/WX   TEMP    WIND        PRES    SWELL
                          AIR SEA DIR/SP/G            HT/PER/DIR
                          (F)     (DEG/KT/KT) (MB)    (FT/S/D)
S CLEMENTE BASIN           61 62  310/  8/ 10 1015.4R   8/280/12
SAN NICOLAS IS.               57                N/A     7/300/11
SO. S. ROSA ISLA           55 56  310/ 23/ 29 1016.5S   5/12
W. S. BARBARA CH           54 54  320/ 23/ 27 1016.9R   7/320/12
S. MONICA BASIN            59 61  310/  6/  8 1015.2R   5/250/12
S PEDRO CHANNEL               61                N/A     2/270/12
DANA POINT                    62                N/A     3/270/13
CMP PENDLETON NS              64                N/A     2/250/11
OCEANSIDE OFFSHR              63                N/A     2/260/11
TORREY PINES OTR              63                N/A     3/270/12
LA JOLLA 1                 61 63  250/  8/  9 1015.2R
MISSION BAY BUOY              63                N/A     3/260/13
SAN DIEGO BAY                 66              1015.3S
POINT LOMA SOUTH              64                N/A     3/270/12

$$





U.S. Dept. of Commerce
NOAA National Weather Service
1325 East West Highway
Silver Spring, MD 20910
E-mail: w-nws.webmaster@noaa.gov
Page last modified: May 16, 2007
NATIONAL WEATHER SERVICE: for Safety, for Work, for Fun - FOR LIFE